Regional Weather Roundup
Issued by NWS

Home | Current Version | Previous Version | Text Only | Print | Product List | Glossary On
Versions: 1 2 3 4 5 6 7 8 9 10 11 12 13 14 15 16 17 18 19 20 21 22 23 24 25 26 27 28 29 30 31 32 33 34 35 36 37 38 39 40 41 42 43 44 45 46 47 48 49 50
181
ASUS43 KLMK 221402
RWRKY
KENTUCKY REGIONAL WEATHER ROUNDUP
NATIONAL WEATHER SERVICE LOUISVILLE KY
900 AM EST WED NOV 22 2017

NOTE "FAIR" INDICATES FEW OR NO CLOUDS BELOW 12,000 FEET
WITH NO SIGNIFICANT WEATHER AND/OR OBSTRUCTIONS TO VISIBILITY.

KYZ001>023-026-027-061>063-070>075-221500-
WESTERN AND SOUTH CENTRAL KENTUCKY

CITY           SKY/WX    TMP DP  RH WIND       PRES   REMARKS
PADUCAH        CLOUDY    31  21  66 N12       30.38R WCI  22
HENDERSON      MOSUNNY   30  23  75 VRB7      30.38  WCI  23
OWENSBORO      SUNNY     31  24  75 N6        30.36R WCI  25
HOPKINSVILLE   SUNNY     31  24  73 N14       30.33R WCI  21
BOWLING GREEN  SUNNY     33  25  72 N7        30.33R WCI  27
GLASGOW        NOT AVBL
$$

KYZ024-025-028>034-038-045-046-053-221500-
NORTH CENTRAL KENTUCKY

CITY           SKY/WX    TMP DP  RH WIND       PRES   REMARKS
LOUISVILLE/SDF MOSUNNY   34  24  67 N8        30.33R WCI  27
LOUISVILLE/LOU SUNNY     32  24  72 N5        30.33R WCI  27
FORT KNOX      SUNNY     30  23  75 NW6       30.31R WCI  24
$$

KYZ035>037-039>044-047>052-055>060-089>105-221500-
NORTHEAST KENTUCKY

CITY           SKY/WX    TMP DP  RH WIND       PRES   REMARKS
LEXINGTON      SUNNY     31  25  78 N6        30.28R WCI  25
COVINGTON      CLOUDY    31  26  82 NW6       30.28R WCI  25
FRANKFORT      SUNNY     31  23  72 NW5       30.29R WCI  26
$$

KYZ054-064>069-076>088-106>120-221500-
SOUTHEAST KENTUCKY

CITY           SKY/WX    TMP DP  RH WIND       PRES   REMARKS
JACKSON        CLOUDY    35  27  72 MISG      30.22R
LONDON         CLOUDY    34  27  75 NE8       30.23R WCI  27
SOMERSET       CLOUDY    32  28  86 NE10      30.28R WCI  24
MIDDLESBORO    CLOUDY    40  35  83 N5        30.21R
MONTICELLO     PTSUNNY   33  28  81 N13G22    30.29R WCI  24
$$





USA.gov is the U.S. government's official web portal to all federal, state and local government web resources and services.